Location: Newark
(41.4822°N, 81.6697°W)
Time: 04:54:39
(UTC+00:00)

ISS - Visible Passes

Search period start: 21 August 2019 00:00
Search period end: 31 August 2019 00:00
Orbit: 410 x 420 km, 51.6° (Epoch: 21 August)

Date Brightness Start Highest point End Pass type
(mag) Time Alt. Az. Time Alt. Az. Time Alt. Az.
26 Aug -1.6 09:48:19 10° S 09:50:53 21° SE 09:53:28 10° E visible
27 Aug -1.1 09:00:59 10° SSE 09:02:17 12° SE 09:03:37 10° ESE visible
28 Aug -3.4 09:47:18 16° SW 09:49:46 58° SE 09:53:04 10° ENE visible
29 Aug -2.6 09:00:39 31° SSE 09:01:03 32° SE 09:04:04 10° ENE visible
30 Aug -0.9 08:13:56 14° E 08:13:56 14° E 08:14:46 10° E visible
30 Aug -3.4 09:46:49 21° WSW 09:48:49 53° NNW 09:52:07 10° NE visible
